Regional Weather Roundup
Issued by NWS Charleston, SC

Current Version | Previous Version | Text Only | Print | Product List | Glossary Off
Versions: 1 2 3 4 5 6 7 8 9 10 11 12 13 14 15 16 17 18 19 20 21 22 23 24 25 26 27 28 29 30 31 32 33 34 35 36 37 38 39 40 41 42 43 44 45 46 47 48 49 50
300 ASUS42 KCHS 210127 RWRCHS REGIONAL WEATHER ROUNDUP NATIONAL WEATHER SERVICE CHARLESTON SC 800 PM EST MON FEB 20 2017 NOTE: "FAIR" INDICATES FEW OR NO CLOUDS BELOW 12,000 FEET WITH NO SIGNIFICANT WEATHER AND/OR OBSTRUCTIONS TO VISIBILITY. NOT ALL STATIONS ARE QUALITY CONTROLLED. USE DATA WITH CAUTION... ESPECIALLY DEWPOINT OBSERVATIONS. SCZ027-030-031-034>040-042>050-210200- ...SOUTHEAST SOUTH CAROLINA... CITY SKY/WX TMP DP RH WIND PRES REMARKS N CHARLESTON PTCLDY 61 49 64 CALM 30.18R WATERFRONT PRK N/A 60 57 89 VRB3 30.17R MOUNT PLEASANT FAIR 55 54 94 CALM 30.19R JOHNS ISLAND FAIR 57 54 88 CALM 30.18S PINOPOLIS N/A 64 48 55 CALM 30.09R MONCKS CORNER FAIR 57 46 67 CALM 30.18S SUMMERVILLE FAIR 61 45 55 CALM 30.19S BEAUFORT MCAS PTCLDY 61 56 83 CALM 30.17R BEAUFORT ARPT FAIR 59 55 88 CALM 30.17S HILTON HEAD IS CLOUDY 57 55 94 CALM 30.18R WALTERBORO PTCLDY 59 48 67 E3 30.18S ALLENDALE FAIR 59 50 72 CALM 30.15S ...SOUTHERN MIDLANDS AND PEE DEE... CITY SKY/WX TMP DP RH WIND PRES REMARKS GEORGETOWN FAIR 54 54 100 E3 30.20R KINGSTREE FAIR 59 48 67 CALM 30.18S ORANGEBURG PTCLDY 60 45 57 CALM 30.16S BARNWELL FAIR 57 50 77 CALM 30.16S AIKEN FAIR 52 45 76 CALM 30.19S MANNING FAIR 57 28 33 MISG 30.18R COLUMBIA PTCLDY 60 48 64 CALM 30.16S SUMTER CLOUDY 58 46 63 CALM 30.14F FLORENCE PTCLDY 61 49 64 CALM 30.18R MYRTLE BEACH CLEAR 57 52 82 E7 30.20S N MYRTLE BEACH PTCLDY 58 52 80 E5 30.19R $$ GAZ063-065-086>088-099>101-113>116-118-119-134>141-150-210200- ...SOUTHEAST GEORGIA... CITY SKY/WX TMP DP RH WIND PRES REMARKS SAVANNAH ARPT CLOUDY 62 48 60 E3 30.16S HUNTER AAF CLOUDY 59 54 84 E3 30.14R FORT STEWART PTCLDY 61 47 61 CALM 30.14R STATESBORO CLOUDY 65 51 59 CALM 30.16R SYLVANIA CLOUDY N/A N/A N/A CALM 30.17R CLAXTON FAIR N/A N/A N/A CALM 30.16R ...CSRA...CENTRAL AND FAR SOUTHEAST GEORGIA... CITY SKY/WX TMP DP RH WIND PRES REMARKS THOMSON MOCLDY 58 52 80 CALM 30.21R AUGUSTA-BUSH CLOUDY 58 47 66 CALM 30.15R AUGUSTA-DANIEL PTCLDY 67 43 41 E3 30.16S SWAINSBORO FAIR 61 52 72 CALM 30.16R VIDALIA PTCLDY 64 55 72 CALM 30.15R EASTMAN FAIR 61 46 58 CALM 30.16R HAZLEHURST FAIR 68 54 60 E5 30.13R ALMA CLOUDY 67 52 58 E6 30.13R WAYCROSS CLOUDY 68 55 62 SE7 30.14S JESUP FAIR 61 48 63 CALM 30.16R BAXLEY FAIR 66 55 68 SE3 30.14S BRUNSWICK N/A 55 55 100 CALM 30.17R FOG SAINT SIMONS PTCLDY 60 56 86 NE3 30.15S $$ SCZ027-028-034-036>038-045-046-048>050-GAZ119-141-210200- ...LAKE AND SUPPLEMENTAL COASTAL OBSERVATIONS... STATION/POSITION TIME TEMP WIND PRES WAVE SWELL AIR SEA DIR/SP/G HT/PER HT/PER/DIR (UTC) (F) (DEG/KT/KT) (MB) (FT/S) (FT/S/D) WINYAH BAY 0030 58 70/ 3 1022.0S LAKE MURRAY 0020 61 CALM 1021.0R ACE BASIN NERRS 0030 57 CALM 1021.0S FORT PULASKI 0100 61 61 110/ 4/ 5 1021.6 SAPELO ISLAND 0100 59 90/ 4 1021.0 $$ ANZ835-935-AMZ111-154-330-350-352-354-370-450-454-472-210200- ...C-MAN AND BUOY OBSERVATIONS... STATION/POSITION TIME TEMP WIND PRES WAVE SWELL AIR SEA DIR/SP/G HT/PER HT/PER/DIR (UTC) (F) (DEG/KT/KT) (MB) (FT/S) (FT/S/D) BUOY 41004 0050 66 68 40/ 8/ 8 1021.4R 2/ 4 2/ 40/ 4 BUOY 41008 0050 62 62 70/ 8/ 8 1020.9R 1/ 3 FOLLY BEACH CMAN 0100 60 50/ 2/ 2 1022.4R CAPERS NEARSHORE NOT AVBL FRIPP NEARSHORE 0108 61 61 130/ 6/ 6 1021.3R STATION/POSITION TIME TEMP WIND PRES WAVE SWELL AIR SEA DIR/SP/G HT/PER HT/PER/DIR (UTC) (F) (DEG/KT/KT) (MB) (FT/S) (FT/S/D) 5E ST. MARYS GA 0100 64 N/A 1/10 FRYING PAN BUOY 0100 66 65 70/ 10/ 12 1021.8 BUOY 41025 0050 59 65 30/ 17/ 21 1022.9R 4/ 5 2/ 40/11 CAPE LOOKOUT NC 0100 57 50/ 13/ 15 1022.6S BUOY 41002 0050 70 71 20/ 17/ 19 1020.1R 5/ 7 BUOY 41010 NOT AVBL ST AUGUSTINE FL 0100 67 69 50/ 8/ 9 1021.4R $$

USA.gov is the U.S. government's official web portal to all federal, state and local government web resources and services.